Terminal Aerodrome Forecast
Issued by NWS

Home | Current Version | Previous Version | Text Only | Print | Product List | Glossary On
Versions: 1 2 3 4 5 6 7 8 9 10 11 12 13 14 15 16 17 18 19 20 21 22 23 24 25 26 27 28 29 30 31 32 33 34 35 36 37
000
FTAK31 PANC 311741
TAFASD
TAF
PASD 311741Z 3118/0118 24018G28KT 6SM -SHRA SCT035 BKN050
      TEMPO 3118/3121 24010G20KT SCT050 BKN100
     FM010900 25012G20KT P6SM -SHRA SCT025 BKN035
      AMD LTD TO CLD VIS AND WIND=

USA.gov is the U.S. government's official web portal to all federal, state and local government web resources and services.